Moose Lake, MN

2:26 AM CST on December 11, 2019 (GMT -0600)
Moose Lake-Carlton County

Weather History for KMZH - October, 2019

Change the Weather History Date:

Monday, October 21, 2019

  Actual Average Record
Temperature  
Mean Temperature 46 °F -  
Max Temperature 48 °F 53 °F 80 °F (1953)
Min Temperature 44 °F 31 °F 19 °F (1987)
Degree Days  
Heating Degree Days 19    
Moisture  
Dew Point 42 °F    
Average Humidity 89    
Maximum Humidity 93    
Minimum Humidity 71    
Precipitation  
Precipitation 0.67 in - - ()
Sea Level Pressure  
Sea Level Pressure 29.42 in    
Wind  
Wind Speed 7 mph ()    
Max Wind Speed 20 mph    
Max Gust Speed 32 mph    
Visibility 7.7 miles    
Events Rain    
Averages and records for this station are not official NWS values.
T = Trace of Precipitation, MM = Missing Value Source: Averaged Metar Reports

Daily Weather History Graph

Daily Weather History Graph

Search for Another Location

Airport or City:

Astronomy

Oct. 21, 2019 Rise Set
Actual Time 7:36 AM CDT 6:14 PM CDT
Civil Twilight 7:05 AM CDT 6:44 PM CDT
Nautical Twilight 6:30 AM CDT 7:19 PM CDT
Astronomical Twilight 5:56 AM CDT 7:54 PM CDT
Moon No Moon Rise 3:07 PM CDT (10/21)
Length of Visible Light 11h 38m
Length of Day
10h 37m
Waning Gibbous, 48% of the Moon is Illuminated
Oct 21
Waning Gibbous
Oct 27
New
Nov 4
First Quarter
Nov 12
Full
Nov 19
Last Quarter

Hourly Weather History & Observations

Time (CDT) Temp. Windchill Dew Point Humidity Pressure Visibility Wind Dir Wind Speed Gust Speed Precip Events Conditions
12:15 AM 48.2 °F - 39.2 °F 71% 29.82 in 10.0 mi ENE 3.5 mph - N/A   Clear
12:19 AM 48.2 °F - 39.2 °F 71% 29.82 in 10.0 mi ENE 3.5 mph - N/A   Clear
12:38 AM 48.2 °F - 39.2 °F 71% 29.81 in 10.0 mi NE 4.6 mph - N/A   Scattered Clouds
12:55 AM 46.4 °F 44.3 °F 39.2 °F 76% 29.81 in 10.0 mi ENE 4.6 mph - N/A   Mostly Cloudy
1:15 AM 46.4 °F 42.9 °F 39.2 °F 76% 29.80 in 10.0 mi NE 6.9 mph - N/A   Mostly Cloudy
1:16 AM 46.4 °F 42.9 °F 39.2 °F 76% 29.80 in 10.0 mi NE 6.9 mph - N/A   Mostly Cloudy
1:35 AM 46.4 °F 43.5 °F 39.2 °F 76% 29.79 in 10.0 mi ENE 5.8 mph - N/A   Scattered Clouds
1:36 AM 46.4 °F 42.9 °F 39.2 °F 76% 29.79 in 10.0 mi ENE 6.9 mph - N/A   Scattered Clouds
2:17 AM 44.6 °F 40.7 °F 41.0 °F 87% 29.75 in 10.0 mi ENE 6.9 mph - N/A   Clear
2:36 AM 44.6 °F 41.4 °F 41.0 °F 87% 29.75 in 10.0 mi NE 5.8 mph - N/A   Clear
2:55 AM 44.6 °F 42.2 °F 41.0 °F 87% 29.75 in 10.0 mi ENE 4.6 mph - N/A   Clear
2:56 AM 44.6 °F 42.2 °F 41.0 °F 87% 29.75 in 10.0 mi ENE 4.6 mph - N/A   Clear
3:15 AM 44.6 °F 41.4 °F 41.0 °F 87% 29.74 in 10.0 mi NE 5.8 mph - N/A   Clear
3:37 AM 44.6 °F 41.4 °F 41.0 °F 87% 29.74 in 10.0 mi ENE 5.8 mph - N/A   Clear
3:55 AM 44.6 °F 41.4 °F 41.0 °F 87% 29.74 in 10.0 mi ENE 5.8 mph - N/A   Clear
4:15 AM 44.6 °F 40.7 °F 41.0 °F 87% 29.72 in 10.0 mi ENE 6.9 mph - N/A   Clear
4:16 AM 44.6 °F 41.4 °F 41.0 °F 87% 29.72 in 10.0 mi ENE 5.8 mph - N/A   Clear
4:35 AM 44.6 °F 41.4 °F 41.0 °F 87% 29.71 in 10.0 mi ENE 5.8 mph - N/A   Clear
4:36 AM 44.6 °F 41.4 °F 41.0 °F 87% 29.71 in 10.0 mi ENE 5.8 mph - N/A   Clear
4:58 AM 44.6 °F 40.7 °F 41.0 °F 87% 29.69 in 10.0 mi ENE 6.9 mph - N/A   Clear
5:16 AM 44.6 °F 38.8 °F 41.0 °F 87% 29.69 in 10.0 mi NE 11.5 mph - N/A   Clear
5:36 AM 44.6 °F 41.4 °F 41.0 °F 87% 29.68 in 10.0 mi ENE 5.8 mph - N/A   Scattered Clouds
5:55 AM 44.6 °F 41.4 °F 41.0 °F 87% 29.67 in 10.0 mi NE 5.8 mph - N/A   Mostly Cloudy
5:56 AM 44.6 °F 40.7 °F 41.0 °F 87% 29.67 in 10.0 mi NE 6.9 mph - N/A   Mostly Cloudy
6:15 AM 44.6 °F 40.2 °F 41.0 °F 87% 29.66 in 10.0 mi ENE 8.1 mph 16.1 mph N/A   Mostly Cloudy
6:20 AM 44.6 °F 39.7 °F 41.0 °F 87% 29.66 in 10.0 mi ENE 9.2 mph - N/A   Scattered Clouds
6:38 AM 44.6 °F 40.2 °F 41.0 °F 87% 29.65 in 10.0 mi ENE 8.1 mph 17.3 mph N/A   Clear
6:56 AM 44.6 °F 40.7 °F 41.0 °F 87% 29.64 in 10.0 mi ENE 6.9 mph - N/A   Mostly Cloudy
7:15 AM 44.6 °F 40.2 °F 41.0 °F 87% 29.63 in 10.0 mi ENE 8.1 mph 19.6 mph N/A   Overcast
7:16 AM 44.6 °F 39.7 °F 41.0 °F 87% 29.63 in 10.0 mi ENE 9.2 mph 19.6 mph N/A   Overcast
7:35 AM 44.6 °F 40.2 °F 41.0 °F 87% 29.62 in 10.0 mi ENE 8.1 mph 18.4 mph N/A   Overcast
7:36 AM 44.6 °F 40.7 °F 41.0 °F 87% 29.61 in 10.0 mi ENE 6.9 mph 18.4 mph N/A   Overcast
7:59 AM 44.6 °F 40.2 °F 41.0 °F 87% 29.59 in 10.0 mi NE 8.1 mph 21.9 mph N/A   Overcast
8:17 AM 44.6 °F 39.7 °F 41.0 °F 87% 29.57 in 10.0 mi NE 9.2 mph 19.6 mph N/A   Overcast
8:36 AM 44.6 °F 38.1 °F 41.0 °F 87% 29.54 in 10.0 mi NE 13.8 mph 24.2 mph N/A   Overcast
8:55 AM 46.4 °F 41.9 °F 39.2 °F 76% 29.54 in 10.0 mi ENE 9.2 mph 17.3 mph N/A   Mostly Cloudy
8:56 AM 46.4 °F 41.1 °F 39.2 °F 76% 29.54 in 10.0 mi ENE 11.5 mph 18.4 mph N/A   Mostly Cloudy
9:15 AM 46.4 °F 41.1 °F 39.2 °F 76% 29.53 in 10.0 mi NE 11.5 mph 19.6 mph N/A   Mostly Cloudy
9:20 AM 46.4 °F 41.9 °F 39.2 °F 76% 29.53 in 10.0 mi ENE 9.2 mph 21.9 mph N/A   Overcast
9:55 AM 44.6 °F 38.4 °F 41.0 °F 87% 29.53 in 4.0 mi ENE 12.7 mph 20.7 mph 0.01 in Rain Light Rain
10:15 AM 44.6 °F 39.2 °F 41.0 °F 87% 29.51 in 3.0 mi NE 10.4 mph 20.7 mph 0.03 in Rain Rain
10:16 AM 44.6 °F 38.8 °F 41.0 °F 87% 29.51 in 3.0 mi ENE 11.5 mph 20.7 mph 0.03 in Rain Rain
10:39 AM 44.6 °F 38.1 °F 41.0 °F 87% 29.48 in 2.5 mi NE 13.8 mph 25.3 mph 0.02 in Rain Rain
10:55 AM 44.6 °F 38.8 °F 42.8 °F 93% 29.45 in 2.0 mi NE 11.5 mph 27.6 mph 0.06 in Rain Heavy Rain
11:15 AM 44.6 °F 38.1 °F 42.8 °F 93% 29.43 in 2.5 mi NE 13.8 mph 21.9 mph 0.02 in Rain Heavy Rain
11:16 AM 44.6 °F 37.8 °F 42.8 °F 93% 29.43 in 2.5 mi NE 15.0 mph 21.9 mph 0.02 in Rain Heavy Rain
11:35 AM 44.6 °F 37.4 °F 42.8 °F 93% 29.39 in 2.0 mi NE 16.1 mph 24.2 mph 0.04 in Rain Heavy Rain
11:36 AM 44.6 °F 38.1 °F 42.8 °F 93% 29.40 in 2.0 mi NE 13.8 mph 21.9 mph 0.04 in Rain Heavy Rain
11:58 AM 44.6 °F 36.6 °F 42.8 °F 93% 29.37 in 2.0 mi NE 19.6 mph 26.5 mph 0.02 in Rain Heavy Rain
12:16 PM 44.6 °F 38.8 °F 42.8 °F 93% 29.36 in 2.5 mi NE 11.5 mph 31.1 mph 0.04 in Rain Heavy Rain
12:35 PM 44.6 °F 37.8 °F 42.8 °F 93% 29.33 in 3.0 mi NE 15.0 mph 23.0 mph 0.08 in Rain Rain
12:36 PM 44.6 °F 38.1 °F 42.8 °F 93% 29.33 in 3.0 mi NE 13.8 mph 23.0 mph 0.08 in Rain Rain
12:55 PM 44.6 °F 38.4 °F 42.8 °F 93% 29.30 in 3.0 mi NE 12.7 mph 27.6 mph 0.12 in Rain Rain
12:56 PM 44.6 °F 38.4 °F 42.8 °F 93% 29.30 in 3.0 mi NE 12.7 mph 27.6 mph N/A Rain Rain
1:19 PM 44.6 °F 37.2 °F 42.8 °F 93% 29.27 in 4.0 mi NE 17.3 mph 26.5 mph 0.05 in Rain Rain
1:37 PM 44.6 °F 38.1 °F 42.8 °F 93% 29.25 in 3.0 mi ENE 13.8 mph 32.2 mph 0.10 in Rain Rain
1:55 PM 44.6 °F 38.8 °F 42.8 °F 93% 29.24 in 3.0 mi ENE 11.5 mph 21.9 mph 0.14 in Rain Rain
2:15 PM 44.6 °F 37.4 °F 42.8 °F 93% 29.22 in 2.0 mi NE 16.1 mph 25.3 mph 0.04 in Rain Rain
2:16 PM 44.6 °F 38.1 °F 42.8 °F 93% 29.22 in 2.0 mi NE 13.8 mph 25.3 mph 0.04 in Rain Rain
2:38 PM 44.6 °F 38.1 °F 42.8 °F 93% 29.20 in 4.0 mi NE 13.8 mph 26.5 mph 0.08 in Rain Rain
2:55 PM 44.6 °F 38.4 °F 42.8 °F 93% 29.18 in 3.0 mi NE 12.7 mph 26.5 mph 0.11 in Rain Rain
3:15 PM 44.6 °F 38.1 °F 42.8 °F 93% 29.17 in 4.0 mi ENE 13.8 mph 24.2 mph 0.02 in Rain Rain
3:35 PM 44.6 °F 36.9 °F 42.8 °F 93% 29.17 in 7.0 mi NE 18.4 mph 29.9 mph 0.04 in Rain Light Rain
3:36 PM 44.6 °F 36.6 °F 42.8 °F 93% 29.16 in 7.0 mi NE 19.6 mph 29.9 mph 0.04 in Rain Light Rain
3:59 PM 44.6 °F 37.2 °F 42.8 °F 93% 29.16 in 5.0 mi NE 17.3 mph 27.6 mph N/A Rain Light Rain
4:16 PM 44.6 °F 37.4 °F 42.8 °F 93% 29.15 in 5.0 mi NE 16.1 mph 29.9 mph 0.02 in Rain Light Rain
4:36 PM 44.6 °F 39.7 °F 42.8 °F 93% 29.15 in 4.0 mi NE 9.2 mph 25.3 mph 0.03 in Rain Light Rain
4:55 PM 44.6 °F 38.8 °F 42.8 °F 93% 29.15 in 5.0 mi NE 11.5 mph 28.8 mph 0.05 in Rain Light Rain
5:15 PM 44.6 °F 38.4 °F 42.8 °F 93% 29.14 in 7.0 mi ENE 12.7 mph 27.6 mph 0.02 in Rain Light Rain
5:19 PM 44.6 °F 37.8 °F 42.8 °F 93% 29.14 in 7.0 mi ENE 15.0 mph 27.6 mph 0.02 in Rain Light Rain
5:37 PM 44.6 °F 39.7 °F 42.8 °F 93% 29.15 in 7.0 mi ENE 9.2 mph 24.2 mph 0.03 in Rain Rain
5:55 PM 44.6 °F 39.2 °F 42.8 °F 93% 29.15 in 10.0 mi NE 10.4 mph 18.4 mph 0.03 in   Light Drizzle
6:15 PM 46.4 °F 42.4 °F 42.8 °F 87% 29.15 in 10.0 mi NE 8.1 mph 19.6 mph N/A   Overcast
6:35 PM 46.4 °F 42.9 °F 42.8 °F 87% 29.15 in 10.0 mi NE 6.9 mph - N/A   Overcast
6:36 PM 46.4 °F 43.5 °F 42.8 °F 87% 29.15 in 10.0 mi NE 5.8 mph - N/A   Overcast
6:59 PM 46.4 °F 43.5 °F 44.6 °F 93% 29.16 in 7.0 mi NE 5.8 mph - 0.01 in Rain Heavy Rain
7:16 PM 46.4 °F 45.2 °F 44.6 °F 93% 29.17 in 5.0 mi NNE 3.5 mph - 0.04 in Rain Rain
7:35 PM 46.4 °F - 44.6 °F 93% 29.17 in 10.0 mi Calm Calm - 0.05 in   Overcast
7:36 PM 46.4 °F - 44.6 °F 93% 29.17 in 10.0 mi Calm Calm - 0.05 in   Overcast
7:55 PM 46.4 °F 42.9 °F 44.6 °F 93% 29.16 in 10.0 mi NE 6.9 mph - 0.05 in   Light Drizzle
7:56 PM 46.4 °F 43.5 °F 44.6 °F 93% 29.16 in 10.0 mi NE 5.8 mph - N/A   Light Drizzle
8:15 PM 46.4 °F 42.9 °F 44.6 °F 93% 29.16 in 10.0 mi NE 6.9 mph - N/A   Overcast
8:19 PM 46.4 °F 42.4 °F 44.6 °F 93% 29.16 in 7.0 mi NNE 8.1 mph - N/A Rain Rain
8:38 PM 46.4 °F 44.3 °F 44.6 °F 93% 29.16 in 10.0 mi NE 4.6 mph - N/A   Overcast
8:55 PM 46.4 °F - 44.6 °F 93% 29.17 in 10.0 mi Calm Calm - N/A Rain Light Rain
9:15 PM 46.4 °F - 44.6 °F 93% 29.17 in 7.0 mi Calm Calm - 0.01 in Rain Light Rain
9:16 PM 46.4 °F - 44.6 °F 93% 29.17 in 7.0 mi Calm Calm - 0.01 in Rain Light Rain
9:35 PM 46.4 °F - 44.6 °F 93% 29.17 in 7.0 mi Calm Calm - 0.01 in   Overcast
9:36 PM 46.4 °F - 44.6 °F 93% 29.17 in 7.0 mi Calm Calm - 0.01 in   Overcast
9:59 PM 46.4 °F - 44.6 °F 93% 29.17 in 10.0 mi Calm Calm - N/A   Light Drizzle
10:16 PM 46.4 °F - 44.6 °F 93% 29.18 in 10.0 mi Calm Calm - N/A   Overcast
10:35 PM 46.4 °F - 44.6 °F 93% 29.18 in 10.0 mi Calm Calm - N/A   Overcast
10:36 PM 46.4 °F - 44.6 °F 93% 29.18 in 10.0 mi Calm Calm - N/A   Overcast
10:55 PM 44.6 °F 42.2 °F 42.8 °F 93% 29.18 in 10.0 mi NW 4.6 mph - N/A   Overcast
10:56 PM 44.6 °F 41.4 °F 42.8 °F 93% 29.18 in 10.0 mi NNW 5.8 mph - N/A   Overcast
11:15 PM 44.6 °F 41.4 °F 42.8 °F 93% 29.18 in 10.0 mi NW 5.8 mph - N/A   Overcast
11:55 PM 44.6 °F 40.7 °F 42.8 °F 93% 29.18 in 10.0 mi NNW 6.9 mph - N/A Rain Light Rain